This demonstration page uses our WeatherBlox Daily Observations layout. Learn more.

39.92423, -83.80882

Hourly Observations for August 19, 2017

Temp ( °F °C ) Dew Point ( °F °C ) Humidity (%) Winds ( mph kmh ) Pressure ( in mb ) Visibility ( mi km ) Precip ( " mm )
12:56 am 00:56 Clear 66 18.9 63 17.2 90 90 W 6 9 29.94 1014 10 16.0934 0 0
1:56 am 01:56 Clear 66 18.9 63 17.2 90 90 WSW 5 7 29.94 1014 10 16.0934 0 0
2:56 am 02:56 Clear 66 18.9 63 17.2 90 90 Calm 29.93 1013 10 16.0934 0 0
3:56 am 03:56 Clear 66 18.9 64 17.8 93 93 Calm 29.91 1013 10 16.0934 0 0
4:56 am 04:56 Clear 65 18.3 63 17.2 93 93 Calm 29.91 1013 10 16.0934 0 0
5:56 am 05:56 Mostly Cloudy 66 18.9 64 17.8 93 93 SSW 7 11 29.92 1013 10 16.0934 0 0
6:56 am 06:56 Cloudy with Light Rain 67 19.4 65 18.3 93 93 WSW 8 13 29.95 1014 10 16.0934 0 0.0254
7:56 am 07:56 Sunny with Mist and Fog 67 19.4 65 18.3 93 93 SW 6 9 29.93 1014 6 9.65604 0 0.0254
8:56 am 08:56 Sunny 70 21.1 66 18.9 87 87 SW 6 9 29.93 1014 10 16.0934 0 0
9:36 am 09:36 Mostly Sunny 72 22 66 19 83 83 SSW 8 13 29.91 1013 10 16.0934 0 0
9:56 am 09:56 Cloudy 72 22.2 67 19.4 84 84 SW 8 13 29.94 1014 10 16.0934 0 0
10:56 am 10:56 Sunny 75 23.9 66 18.9 74 74 W 9 15 29.94 1014 10 16.0934 0 0
11:56 am 11:56 Sunny 77 25 67 19.4 71 71 W 12 19 29.96 1015 10 16.0934 0 0
12:56 pm 12:56 Sunny 81 27.2 67 19.4 62 62 WSW 10 17 29.96 1015 10 16.0934 0 0
1:56 pm 13:56 Mostly Sunny 82 27.8 65 18.3 56 56 W 10 17 29.94 1014 10 16.0934 0 0
2:56 pm 14:56 Mostly Sunny 83 28.3 67 19.4 59 59 WSW 10 17 29.94 1014 10 16.0934 0 0
3:56 pm 15:56 Sunny 85 29.4 66 18.9 53 53 W 12 19 29.92 1013 10 16.0934 0 0
4:56 pm 16:56 Mostly Sunny 84 28.9 67 19.4 57 57 W 8 13 29.92 1013 10 16.0934 0 0
5:56 pm 17:56 Mostly Sunny 83 28.3 66 18.9 57 57 NW 12 19 29.92 1013 10 16.0934 0 0
6:56 pm 18:56 Sunny 80 26.7 67 19.4 64 64 N 9 15 29.94 1014 10 16.0934 0 0
7:56 pm 19:56 Sunny 77 25 66 18.9 69 69 NNW 7 11 29.96 1014 10 16.0934 0 0
8:56 pm 20:56 Clear 74 23.3 64 17.8 71 71 NE 5 7 29.97 1015 10 16.0934 0 0
9:56 pm 21:56 Clear 70 21.1 61 16.1 73 73 NE 5 7 29.99 1016 10 16.0934 0 0
10:56 pm 22:56 Clear 68 20 63 17.2 84 84 SSE 3 6 30.01 1016 10 16.0934 0 0
11:56 pm 23:56 Clear 64 17.8 62 16.7 93 93 Calm 30.03 1017 10 16.0934 0 0

Powered by AerisWeather